Overview Statistics Trail Chart Weather Telemetry Raw packets
 

This is the latest recevied weather packets stored in our database for station/object KD4EED. If no packets are shown the sender has not sent any weather packets the latest 10 day(s).

<< 30 31 32 33 34 35 36 >>
Time Temp. Humidity Pressure Rain* Wind** Luminosity Snow
1788477554 28.33° C 53% 1009.6 hPa - - 344 W/m² -
1788477249 27.78° C 53% 1009.8 hPa - - 355 W/m² -
1788476944 27.78° C 54% 1009.5 hPa - - 370 W/m² -
1788476639 27.78° C 55% 1009.6 hPa - - 379 W/m² -
1788476336 27.22° C 55% 1009.7 hPa - - 388 W/m² -
1788476031 27.78° C 55% 1009.8 hPa - - 393 W/m² -
1788475728 27.78° C 54% 1009.8 hPa - - 397 W/m² -
1788475423 27.78° C 55% 1009.9 hPa - - 407 W/m² -
1788475119 27.78° C 54% 1009.9 hPa - - 414 W/m² -
1788474818 28.33° C 54% 1010.1 hPa - - 423 W/m² -
1788474513 27.78° C 53% 1010.2 hPa - - 434 W/m² -
1788474213 27.78° C 53% 1010.3 hPa - - 445 W/m² -
1788473913 27.78° C 55% 1010.4 hPa - - 459 W/m² -
1788473612 27.22° C 55% 1010.3 hPa - - 472 W/m² -
1788473310 27.22° C 55% 1010.5 hPa - - 489 W/m² -
1788473005 27.78° C 54% 1010.5 hPa - - 505 W/m² -
1788472703 27.78° C 54% 1010.5 hPa - - 515 W/m² -
1788472399 27.78° C 54% 1010.3 hPa - - 533 W/m² -
1788472098 27.78° C 54% 1010.5 hPa - - 544 W/m² -
1788471813 27.78° C 54% 1010.4 hPa - - 553 W/m² -
1788471488 27.78° C 54% 1010.4 hPa - - 563 W/m² -
1788471183 27.78° C 54% 1010.6 hPa - - 573 W/m² -
1788470879 27.78° C 54% 1010.5 hPa - - 582 W/m² -
1788470576 27.78° C 54% 1010.6 hPa - - 592 W/m² -
1788470274 27.78° C 53% 1010.6 hPa - - 600 W/m² -

* Rain since midnight (hover to see other rain measurements)
** Current wind speed in m/s (hover to see current wind gust speed)